Thunderstorms From: 23-05-2018 15:04 Until: 24-05-2018 15:00 warning for: Thunderstorms Level: Yellow info button

Although rather usual in this region, locally or potentially dangerous phenomena are expected. (such as local winds, summer thunderstorms, rising streams or high waves) Be aware and pay attention to the latest weather updates, especially if you carry out activities exposed to weather or close to a stream or shoreline. 


Meteo18 Weather Cam more information Meteo18 Weather Cam


warning for Thunderstorms more information blitzortung!


Rain radar more information rain snow radar


Visit our other weather sites:

Template documentation
and downloads

And another site



Weather Underground History page Text

Daily Summary for January 22, 2018 Units:  Metric    English   Both
« Previous Day
Next Day »
Daily Weekly Monthly Yearly Custom
  High: Low: Average:
Temperature: -17.8 °C -13.3 °C -11.9 °C
Dew Point: -17.8 °C -14.5 °C -12.5 °C
Humidity: Humidity % 78 % 92 %
Wind Speed: 0 km/h 0 km/h 26.2 km/h
Wind Gust: 0 km/h - -
Wind:- - West
Pressure: 0 hPa 34313.7 hPa -
Precipitation: 200.66 mm    
Historical Graphs
 
 
Tabular Data for January 22, 2018
Time Temperature Dew Point Pressure Wind Wind Speed Wind Gust Humidity Rainfall Rate (Hourly)
-17.8 °C -17.8 °C 0 hPa Calm     Humidity % 0 mm
00:08 -12 °C -12.5 °C 34405.1 hPa West 23 km/h 36.2 km/h 94 % 7.62 mm
00:14 -12 °C -12.5 °C 34405.1 hPa WSW 33.6 km/h 33.6 km/h 94 % 7.62 mm
00:20 -12 °C -12.4 °C 34405.1 hPa West 23 km/h 36.2 km/h 95 % 7.62 mm
00:26 -12 °C -12.4 °C 34418.7 hPa South 15.6 km/h 46.7 km/h 95 % 12.7 mm
00:32 -12 °C -12.4 °C 34418.7 hPa WSW 26.2 km/h 38.8 km/h 95 % 12.7 mm
00:38 -12 °C -12.4 °C 34405.1 hPa WSW 15.6 km/h 41.4 km/h 95 % 12.7 mm
00:44 -12.1 °C -12.5 °C 34405.1 hPa West 26.2 km/h 41.4 km/h 95 % 12.7 mm
00:50 -12.1 °C -12.5 °C 34405.1 hPa WSW 23 km/h 36.2 km/h 95 % 12.7 mm
00:56 -12.1 °C -12.5 °C 34405.1 hPa WSW 38.8 km/h 49.2 km/h 95 % 20.32 mm
01:02 -12.1 °C -12.4 °C 34405.1 hPa WSW 31.4 km/h 44.1 km/h 96 % 25.4 mm
01:08 -12.1 °C -12.4 °C 34395 hPa WNW 36.5 km/h 51.8 km/h 96 % 33.02 mm
01:14 -12.1 °C -12.4 °C 34405.1 hPa SSW 23 km/h 36.2 km/h 96 % 33.02 mm
01:20 -12.1 °C -12.4 °C 34405.1 hPa WSW 23 km/h 41.4 km/h 96 % 38.1 mm
01:26 -12.1 °C -12.4 °C 34405.1 hPa West 20.9 km/h 46.7 km/h 96 % 33.02 mm
01:32 -12.1 °C -12.4 °C 34395 hPa West 26.2 km/h 41.4 km/h 96 % 33.02 mm
01:38 -12.1 °C -12.4 °C 34395 hPa WSW 28.5 km/h 57 km/h 96 % 33.02 mm
01:44 -12.1 °C -12.4 °C 34395 hPa WSW 36.5 km/h 49.2 km/h 96 % 33.02 mm
01:50 -12.1 °C -12.4 °C 34395 hPa WSW 33.6 km/h 41.4 km/h 96 % 25.4 mm
01:56 -12.1 °C -12.4 °C 34395 hPa West 33.6 km/h 49.2 km/h 96 % 20.32 mm
02:02 -12.1 °C -12.4 °C 34395 hPa West 36.5 km/h 41.4 km/h 96 % 20.32 mm
02:08 -12.1 °C -12.4 °C 34395 hPa West 38.8 km/h 38.8 km/h 96 % 12.7 mm
02:14 -12.1 °C -12.4 °C 34395 hPa West 20.9 km/h 36.2 km/h 96 % 12.7 mm
02:20 -12.1 °C -12.4 °C 34395 hPa WSW 38.8 km/h 44.1 km/h 96 % 12.7 mm
02:26 -12.1 °C -12.4 °C 34395 hPa WSW 28.5 km/h 38.8 km/h 96 % 12.7 mm
02:32 -12 °C -12.3 °C 34405.1 hPa WSW 17.9 km/h 44.1 km/h 96 % 12.7 mm
02:38 -12 °C -12.3 °C 34405.1 hPa WSW 20.9 km/h 44.1 km/h 96 % 12.7 mm
02:44 -12 °C -12.3 °C 34405.1 hPa West 26.2 km/h 41.4 km/h 96 % 12.7 mm
02:50 -12 °C -12.3 °C 34405.1 hPa SW 17.9 km/h 28.5 km/h 96 % 12.7 mm
02:56 -12 °C -12.3 °C 34405.1 hPa West 15.6 km/h 36.2 km/h 96 % 12.7 mm
03:02 -11.9 °C -12.3 °C 34405.1 hPa West 46.3 km/h 46.7 km/h 96 % 7.62 mm
03:08 -11.9 °C -12.3 °C 34405.1 hPa WSW 15.6 km/h 41.4 km/h 96 % 12.7 mm
03:14 -11.9 °C -12.2 °C 34405.1 hPa West 26.2 km/h 38.8 km/h 96 % 12.7 mm
03:20 -11.9 °C -12.2 °C 34405.1 hPa WSW 17.9 km/h 25.9 km/h 96 % 12.7 mm
03:26 -11.9 °C -12.2 °C 34405.1 hPa SSW 12.7 km/h 41.4 km/h 96 % 12.7 mm
03:32 -11.9 °C -12.2 °C 34395 hPa West 31.4 km/h 38.8 km/h 96 % 12.7 mm
03:44 -11.9 °C -12.2 °C 34395 hPa WSW 23 km/h 38.8 km/h 96 % 20.32 mm
03:50 -11.8 °C -12.2 °C 34395 hPa West 33.6 km/h 36.2 km/h 96 % 25.4 mm
03:56 -11.8 °C -12.2 °C 34395 hPa West 31.4 km/h 41.4 km/h 96 % 25.4 mm
04:02 -11.8 °C -12.2 °C 34395 hPa West 20.9 km/h 44.1 km/h 96 % 33.02 mm
04:14 -11.8 °C -12.2 °C 34384.8 hPa WSW 38.8 km/h 49.2 km/h 96 % 33.02 mm
04:20 -11.8 °C -12.2 °C 34384.8 hPa West 38.8 km/h 38.8 km/h 96 % 33.02 mm
04:26 -11.8 °C -12.2 °C 34395 hPa West 44.1 km/h 44.1 km/h 96 % 25.4 mm
04:32 -11.8 °C -12.1 °C 34395 hPa West 26.2 km/h 44.1 km/h 96 % 33.02 mm
04:38 -11.8 °C -12.1 °C 34395 hPa WSW 15.6 km/h 36.2 km/h 96 % 25.4 mm
04:50 -11.8 °C -12.1 °C 34384.8 hPa West 26.2 km/h 38.8 km/h 96 % 20.32 mm
04:56 -11.8 °C -12.1 °C 34384.8 hPa WSW 26.2 km/h 46.7 km/h 96 % 20.32 mm
05:02 -11.7 °C -12.1 °C 34395 hPa West 28.5 km/h 46.7 km/h 96 % 12.7 mm
05:08 -11.7 °C -12.1 °C 34395 hPa West 17.9 km/h 41.4 km/h 96 % 12.7 mm
05:14 -11.7 °C -12.1 °C 34395 hPa WSW 17.9 km/h 33.6 km/h 96 % 12.7 mm
05:20 -11.7 °C -12.1 °C 34395 hPa West 23 km/h 46.7 km/h 96 % 12.7 mm
05:33 -11.7 °C -12.1 °C 34384.8 hPa SW 17.9 km/h 44.1 km/h 96 % 7.62 mm
05:39 -11.7 °C -12.1 °C 34384.8 hPa West 33.6 km/h 41.4 km/h 96 % 7.62 mm
05:45 -11.7 °C -12.1 °C 34384.8 hPa WSW 31.4 km/h 33.6 km/h 96 % 0 mm
05:51 -11.7 °C -12.1 °C 34395 hPa WSW 33.6 km/h 33.6 km/h 96 % 0 mm
05:57 -11.8 °C -12.1 °C 34384.8 hPa SW 28.5 km/h 38.8 km/h 96 % 7.62 mm
06:03 -11.8 °C -12.1 °C 34384.8 hPa WSW 23 km/h 28.5 km/h 96 % 7.62 mm
06:09 -11.8 °C -12.1 °C 34384.8 hPa West 17.9 km/h 36.2 km/h 96 % 7.62 mm
06:15 -11.8 °C -12.1 °C 34371.3 hPa WSW 31.4 km/h 41.4 km/h 97 % 7.62 mm
06:21 -11.8 °C -12.1 °C 34384.8 hPa SW 28.5 km/h 46.7 km/h 97 % 7.62 mm
06:27 -11.7 °C -12 °C 34384.8 hPa SW 31.4 km/h 41.4 km/h 97 % 7.62 mm
06:33 -11.7 °C -12.1 °C 34384.8 hPa West 26.2 km/h 59.5 km/h 96 % 7.62 mm
06:39 -11.7 °C -12.1 °C 34384.8 hPa West 36.5 km/h 36.5 km/h 96 % 7.62 mm
06:45 -11.7 °C -12.1 °C 34384.8 hPa West 31.4 km/h 44.1 km/h 96 % 7.62 mm
06:51 -11.7 °C -12.1 °C 34384.8 hPa WSW 26.2 km/h 33.6 km/h 96 % 12.7 mm
06:57 -11.7 °C -12.1 °C 34371.3 hPa SW 23 km/h 51.8 km/h 96 % 7.62 mm
07:03 -11.7 °C -12.1 °C 34371.3 hPa WSW 12.7 km/h 41.4 km/h 96 % 7.62 mm
07:15 -11.7 °C -12.1 °C 34371.3 hPa WSW 26.2 km/h 44.1 km/h 96 % 12.7 mm
07:27 -11.7 °C -12.1 °C 34371.3 hPa West 26.2 km/h 44.1 km/h 96 % 12.7 mm
07:33 -11.7 °C -12.1 °C 34371.3 hPa SW 15.6 km/h 41.4 km/h 96 % 12.7 mm
07:39 -11.7 °C -12.1 °C 34361.1 hPa West 36.5 km/h 54.4 km/h 96 % 12.7 mm
07:45 -11.7 °C -12.1 °C 34371.3 hPa WSW 12.7 km/h 38.8 km/h 96 % 12.7 mm
07:51 -11.7 °C -12.1 °C 34371.3 hPa WSW 41.7 km/h 44.1 km/h 96 % 12.7 mm
07:57 -11.7 °C -12 °C 34361.1 hPa WSW 26.2 km/h 41.4 km/h 96 % 12.7 mm
08:15 -11.7 °C -12 °C 34371.3 hPa West 31.4 km/h 46.7 km/h 96 % 7.62 mm
08:27 -11.7 °C -12 °C 34361.1 hPa WSW 36.5 km/h 64.7 km/h 96 % 7.62 mm
08:33 -11.7 °C -12 °C 34361.1 hPa West 10.3 km/h 46.7 km/h 96 % 7.62 mm
08:39 -11.7 °C -12 °C 34361.1 hPa SW 44.1 km/h 57 km/h 96 % 7.62 mm
08:57 -11.7 °C -12 °C 34361.1 hPa WSW 38.8 km/h 59.5 km/h 96 % 7.62 mm
09:03 -11.7 °C -12 °C 34361.1 hPa West 26.2 km/h 46.7 km/h 96 % 7.62 mm
09:09 -11.7 °C -12 °C 34347.6 hPa WSW 26.2 km/h 57 km/h 96 % 7.62 mm
09:15 -11.7 °C -12 °C 34347.6 hPa SW 49.2 km/h 62.1 km/h 96 % 7.62 mm
09:27 -11.7 °C -12 °C 34347.6 hPa WSW 38.8 km/h 57 km/h 96 % 7.62 mm
09:33 -11.7 °C -12 °C 34347.6 hPa WSW 31.4 km/h 54.4 km/h 96 % 7.62 mm
09:39 -11.7 °C -12 °C 34347.6 hPa WSW 46.3 km/h 64.7 km/h 96 % 7.62 mm
09:45 -11.7 °C -12 °C 34347.6 hPa West 46.3 km/h 54.4 km/h 96 % 7.62 mm
09:51 -11.6 °C -11.9 °C 34347.6 hPa WSW 28.5 km/h 54.4 km/h 96 % 0 mm
09:57 -11.7 °C -12 °C 34347.6 hPa WSW 26.2 km/h 57 km/h 96 % 0 mm
10:03 -11.6 °C -11.9 °C 34347.6 hPa West 41.7 km/h 69.8 km/h 96 % 7.62 mm
10:15 -11.6 °C -11.9 °C 34337.4 hPa SW 33.6 km/h 69.8 km/h 96 % 7.62 mm
10:21 -11.7 °C -12 °C 34327.3 hPa WSW 49.2 km/h 77.7 km/h 96 % 7.62 mm
10:39 -11.7 °C -12 °C 34327.3 hPa SW 56.6 km/h 64.7 km/h 96 % 7.62 mm
10:45 -11.7 °C -12.1 °C 34327.3 hPa WSW 62 km/h 62.1 km/h 95 % 7.62 mm
10:51 -11.6 °C -12.1 °C 34337.4 hPa West 26.2 km/h 75.2 km/h 95 % 7.62 mm
10:57 -11.6 °C -12.1 °C 34337.4 hPa SW 56.6 km/h 59.5 km/h 95 % 12.7 mm
11:03 -11.7 °C -12.1 °C 34337.4 hPa WSW 31.4 km/h 54.4 km/h 95 % 12.7 mm
11:09 -11.7 °C -12.1 °C 34327.3 hPa SW 28.5 km/h 51.8 km/h 95 % 20.32 mm
11:15 -11.7 °C -12.1 °C 34327.3 hPa WSW 38.8 km/h 85.5 km/h 95 % 20.32 mm
11:21 -11.7 °C -12.2 °C 34327.3 hPa West 26.2 km/h 41.4 km/h 95 % 25.4 mm
11:27 -11.7 °C -12.1 °C 34327.3 hPa SW 51.5 km/h 51.8 km/h 96 % 33.02 mm
11:33 -11.7 °C -12.1 °C 34327.3 hPa WSW 36.5 km/h 49.2 km/h 96 % 38.1 mm
11:39 -11.7 °C -12.1 °C 34327.3 hPa West 33.6 km/h 54.4 km/h 96 % 38.1 mm
11:45 -11.7 °C -12.1 °C 34327.3 hPa WSW 31.4 km/h 69.8 km/h 96 % 38.1 mm
11:51 -11.7 °C -12 °C 34327.3 hPa WSW 49.2 km/h 67.3 km/h 96 % 38.1 mm
11:57 -11.7 °C -12 °C 34337.4 hPa WSW 49.2 km/h 64.7 km/h 96 % 25.4 mm
12:03 -11.7 °C -12 °C 34327.3 hPa WSW 31.4 km/h 51.8 km/h 96 % 25.4 mm
12:09 -11.6 °C -11.9 °C 34327.3 hPa West 17.9 km/h 36.2 km/h 96 % 20.32 mm
12:15 -11.6 °C -11.9 °C 34327.3 hPa WSW 28.5 km/h 54.4 km/h 96 % 25.4 mm
12:21 -11.6 °C -11.9 °C 34313.7 hPa WSW 33.6 km/h 59.5 km/h 96 % 20.32 mm
12:27 -11.6 °C -12 °C 34313.7 hPa WSW 44.1 km/h 51.8 km/h 95 % 12.7 mm
12:39 -11.5 °C -11.8 °C 34313.7 hPa WSW 44.1 km/h 59.5 km/h 96 % 20.32 mm
12:45 -11.4 °C -11.9 °C 34313.7 hPa West 41.7 km/h 57 km/h 94 % 20.32 mm
12:51 -11.3 °C -12 °C 34313.7 hPa West 20.9 km/h 69.8 km/h 92 % 12.7 mm
12:57 -11.2 °C -11.9 °C 34313.7 hPa West 26.2 km/h 51.8 km/h 92 % 12.7 mm
13:03 -11.2 °C -11.9 °C 34313.7 hPa West 26.2 km/h 54.4 km/h 91 % 12.7 mm
13:09 -11.2 °C -12 °C 34327.3 hPa WSW 23 km/h 44.1 km/h 91 % 12.7 mm
13:15 -11.3 °C -12.1 °C 34313.7 hPa West 38.8 km/h 62.1 km/h 91 % 12.7 mm
13:21 -11.2 °C -12.1 °C 34313.7 hPa West 41.7 km/h 46.7 km/h 90 % 12.7 mm
13:27 -11 °C -12.1 °C 34313.7 hPa NW 23 km/h 46.7 km/h 88 % 12.7 mm
13:39 -10.8 °C -12.1 °C 34313.7 hPa NW 26.2 km/h 54.4 km/h 86 % 0 mm
13:45 -10.7 °C -12 °C 34313.7 hPa WSW 36.5 km/h 46.7 km/h 86 % 7.62 mm
13:51 -10.7 °C -12.2 °C 34313.7 hPa WNW 28.5 km/h 57 km/h 83 % 7.62 mm
13:57 -10.6 °C -12.1 °C 34313.7 hPa West 41.7 km/h 49.2 km/h 83 % 7.62 mm
14:03 -10.5 °C -12.4 °C 34313.7 hPa West 38.8 km/h 62.1 km/h 80 % 7.62 mm
14:09 -10.4 °C -12.6 °C 34313.7 hPa West 44.1 km/h 62.1 km/h 78 % 7.62 mm
14:15 -10.4 °C -12.6 °C 34313.7 hPa WNW 36.5 km/h 54.4 km/h 78 % 7.62 mm
14:21 -10.5 °C -12.6 °C 34313.7 hPa WSW 41.7 km/h 75.2 km/h 78 % 7.62 mm
14:27 -10.5 °C -12.5 °C 34313.7 hPa SW 20.9 km/h 51.8 km/h 79 % 7.62 mm
14:45 -10.8 °C -12.2 °C 34327.3 hPa West 38.8 km/h 57 km/h 85 % 0 mm
15:09 -11.2 °C -12 °C 34337.4 hPa West 31.4 km/h 46.7 km/h 91 % 0 mm
15:15 -11.3 °C -12.1 °C 34337.4 hPa WSW 44.1 km/h 46.7 km/h 92 % 0 mm
15:21 -11.3 °C -12.1 °C 34347.6 hPa WSW 26.2 km/h 38.8 km/h 92 % 0 mm
15:27 -11.3 °C -12.1 °C 34347.6 hPa WSW 33.6 km/h 33.6 km/h 92 % 0 mm
15:33 -11.3 °C -12.1 °C 34347.6 hPa West 20.9 km/h 36.2 km/h 92 % 0 mm
15:45 -11.3 °C -12.1 °C 34361.1 hPa West 23 km/h 49.2 km/h 92 % 0 mm
15:57 -11.3 °C -12.1 °C 34371.3 hPa West 26.2 km/h 38.8 km/h 92 % 0 mm
16:03 -11.3 °C -12.1 °C 34371.3 hPa West 26.2 km/h 36.2 km/h 92 % 0 mm
16:09 -11.4 °C -12.1 °C 34384.8 hPa West 20.9 km/h 33.6 km/h 92 % 0 mm
16:15 -11.4 °C -12.1 °C 34384.8 hPa WNW 20.9 km/h 36.2 km/h 93 % 0 mm
16:21 -11.5 °C -12.1 °C 34384.8 hPa West 31.4 km/h 36.2 km/h 93 % 0 mm
16:27 -11.5 °C -12 °C 34384.8 hPa West 17.9 km/h 33.6 km/h 94 % 0 mm
16:33 -11.6 °C -12.1 °C 34395 hPa West 20.9 km/h 31.1 km/h 94 % 0 mm
16:39 -11.6 °C -12.1 °C 34395 hPa WSW 23 km/h 31.1 km/h 94 % 0 mm
16:45 -11.6 °C -12.1 °C 34405.1 hPa West 17.9 km/h 33.6 km/h 94 % 0 mm
16:51 -11.6 °C -12.1 °C 34405.1 hPa West 20.9 km/h 28.5 km/h 94 % 0 mm
16:57 -11.6 °C -12.1 °C 34405.1 hPa NW 5.1 km/h 36.2 km/h 94 % 0 mm
17:03 -11.6 °C -12.1 °C 34418.7 hPa West 20.9 km/h 33.6 km/h 94 % 0 mm
17:09 -11.6 °C -12 °C 34428.8 hPa NW 20.9 km/h 25.9 km/h 95 % 0 mm
17:15 -11.6 °C -12.1 °C 34428.8 hPa WNW 12.7 km/h 33.6 km/h 94 % 7.62 mm
17:21 -11.5 °C -12 °C 34428.8 hPa WNW 31.4 km/h 33.6 km/h 94 % 7.62 mm
17:27 -11.4 °C -12.1 °C 34442.4 hPa WNW 20.9 km/h 33.6 km/h 93 % 7.62 mm
17:33 -11.4 °C -12.1 °C 34452.6 hPa West 20.9 km/h 33.6 km/h 93 % 7.62 mm
17:39 -11.5 °C -12.1 °C 34462.7 hPa NW 17.9 km/h 41.4 km/h 93 % 12.7 mm
17:45 -11.6 °C -12.3 °C 34462.7 hPa WNW 31.4 km/h 46.7 km/h 92 % 12.7 mm
17:51 -11.7 °C -12.4 °C 34476.3 hPa NW 31.4 km/h 41.4 km/h 91 % 12.7 mm
17:57 -11.7 °C -12.5 °C 34486.4 hPa NNW 26.2 km/h 54.4 km/h 91 % 12.7 mm
18:03 -11.8 °C -12.6 °C 34496.6 hPa NNW 57 km/h 57 km/h 91 % 12.7 mm
18:09 -12 °C -12.8 °C 34496.6 hPa NNW 20.9 km/h 54.4 km/h 91 % 12.7 mm
18:15 -12.1 °C -12.9 °C 34510.1 hPa NNW 44.1 km/h 44.1 km/h 90 % 7.62 mm
18:21 -12.1 °C -13 °C 34510.1 hPa NW 15.6 km/h 41.4 km/h 89 % 7.62 mm
18:27 -12.2 °C -13.2 °C 34520.3 hPa NNW 26.2 km/h 44.1 km/h 88 % 7.62 mm
18:33 -12.3 °C -13.3 °C 34520.3 hPa NW 12.7 km/h 44.1 km/h 88 % 7.62 mm
18:39 -12.3 °C -13.4 °C 34520.3 hPa NW 15.6 km/h 49.2 km/h 88 % 0 mm
18:43 -12.3 °C -13.4 °C 34520.3 hPa NNW 26.2 km/h 49.2 km/h 88 % 0 mm
18:55 -12.4 °C -13.4 °C 34544 hPa WNW 15.6 km/h 20.8 km/h 88 % 0 mm
19:15 -12.4 °C -13.6 °C 34567.7 hPa NW 41.7 km/h 41.7 km/h 87 % 0 mm
19:36 -12.7 °C -13.8 °C 34577.8 hPa NNW 12.7 km/h 23.3 km/h 87 % 0 mm
20:50 -12.8 °C -14.3 °C 34659.1 hPa NW 26.2 km/h 26.2 km/h 84 % 0 mm
21:32 -13 °C -14.4 °C 34682.8 hPa WNW 12.7 km/h 18.2 km/h 84 % 0 mm
21:44 -13 °C -14.4 °C 34682.8 hPa WNW 7.6 km/h 10.3 km/h 84 % 0 mm
21:52 -13 °C -14.4 °C 34693 hPa WNW 5.1 km/h 10.3 km/h 84 % 0 mm
22:00 -13 °C -14.4 °C 34693 hPa WNW 7.6 km/h 10.3 km/h 84 % 0 mm
22:02 -13 °C -14.5 °C 34693 hPa WNW 5.1 km/h 10.3 km/h 83 % 0 mm
22:08 -13.1 °C -14.4 °C 34693 hPa West 2.3 km/h 10.3 km/h 84 % 0 mm
22:16 -13.1 °C -14.5 °C 34693 hPa Calm     84 % 0 mm
22:20 -13.1 °C -14.5 °C 34703.1 hPa WSW 2.3 km/h 2.6 km/h 84 % 0 mm
22:28 -13.1 °C -14.4 °C 34703.1 hPa Calm     85 % 0 mm
22:37 -13.2 °C -14.5 °C 34703.1 hPa WSW 2.3 km/h 5.1 km/h 85 % 0 mm
22:42 -13.2 °C -14.4 °C 34703.1 hPa WSW 2.3 km/h 7.7 km/h 86 % 0 mm
22:48 -13.2 °C -14.4 °C 34703.1 hPa SW 7.6 km/h 7.7 km/h 86 % 0 mm
22:56 -13.2 °C -14.4 °C 34703.1 hPa WSW 10.3 km/h 15.6 km/h 86 % 0 mm
23:02 -13.2 °C -14.4 °C 34703.1 hPa WSW 10.3 km/h 12.9 km/h 86 % 0 mm
23:04 -13.2 °C -14.4 °C 34703.1 hPa SW 7.6 km/h 10.3 km/h 86 % 0 mm
23:10 -13.2 °C -14.3 °C 34703.1 hPa SW 5.1 km/h 10.3 km/h 87 % 0 mm
23:16 -13.2 °C -14.3 °C 34716.7 hPa SW 2.3 km/h 5.1 km/h 88 % 0 mm
23:22 -13.2 °C -14.2 °C 34716.7 hPa SW 7.6 km/h 18.2 km/h 89 % 0 mm
23:28 -13.2 °C -14.2 °C 34716.7 hPa West 5.1 km/h 18.2 km/h 89 % 0 mm
23:34 -13.3 °C -14.1 °C 34716.7 hPa WSW 7.6 km/h 15.6 km/h 90 % 0 mm
23:40 -13.3 °C -14.1 °C 34716.7 hPa SW 7.6 km/h 20.8 km/h 91 % 0 mm
23:46 -13.3 °C -14.1 °C 34716.7 hPa WSW 5.1 km/h 12.9 km/h 91 % 0 mm
23:52 -13.3 °C -14.1 °C 34726.8 hPa West 7.6 km/h 12.9 km/h 91 % 0 mm
23:58 -13.3 °C -14 °C 34726.8 hPa SW 5.1 km/h 12.9 km/h 92 % 0 mm
Meteo18
Compliments of Weather Underground - 4 mb

Script developed by  Jim McMurry - jmcmurry@mwt.net Adapted for the template by  Wim van der Kuil - Leuven-Template.eu

You find our weather info also at:

European Weather Network

Weather Underground

Equipment we use:

Weather-station
Davis Vue

Weather-program
Meteobridge

Weather-server
Raspberry PI 2 B+

Provider
1 and 1

Davis Vue

Meteobridge

Raspberry PI 2 B+

1 and 1